Temp_Advection
nan nan nan nan nan nan nan nan nan nan nan nan nan nan nan nan nan nan nan nan nan nan nan nan nan nan nan nan nan nan nan nan nan nan nan nan nan nan nan nan nan nan nan
nan -1 -1 -1 -1 -0 1 -1 -1 1 1 1 1 1 -0 0 0 0 0 -0 -1 0 -1 -0 1 2 1 -1 0 0 0 0 0 0 0 0 0 0 0 0 0 0 nan
nan -1 -1 -1 0 1 -0 -1 0 1 1 1 0 0 0 0 -0 1 0 -0 0 1 1 1 1 1 -1 -1 0 0 1 0 0 0 0 0 0 0 0 0 0 0 nan
nan -1 -1 -1 1 1 -1 0 0 0 1 0 0 0 0 -0 1 1 0 0 2 1 1 1 1 -0 -1 -0 0 0 1 0 0 0 0 0 0 0 0 0 0 0 nan
nan -1 -0 -0 0 -0 -0 1 0 0 0 0 0 -0 -0 0 0 0 0 1 1 1 1 0 0 0 1 0 0 1 1 0 -0 0 0 0 0 0 0 0 0 0 nan
nan -1 -1 -1 -1 -1 -0 1 0 -0 0 0 0 0 0 0 0 0 0 1 1 1 0 1 1 2 1 0 1 1 0 0 1 0 0 0 0 1 1 0 0 0 nan
nan -1 -1 -1 -1 -0 0 0 0 0 -0 0 -0 0 0 0 -0 0 1 1 1 1 0 1 1 1 0 1 0 1 1 0 -0 -0 0 1 0 1 0 0 1 0 nan
nan -1 -1 -1 -1 -0 -0 1 0 -0 -1 -0 1 1 0 -0 -0 1 1 2 2 1 1 1 2 1 1 1 0 0 -0 -0 -0 0 1 0 1 1 0 1 0 0 nan
nan -1 -1 -1 -1 -0 -0 0 1 1 0 0 0 0 0 1 1 2 2 3 2 1 1 2 2 1 1 0 -0 -1 -1 -1 1 1 -0 0 0 0 1 1 1 1 nan
nan -1 -1 -1 -1 -0 -0 0 1 0 0 0 1 1 2 1 1 1 2 3 2 1 1 2 1 1 1 -0 -1 -1 -0 -0 0 -0 0 0 1 1 1 1 0 0 nan
nan -0 -0 -0 -0 -0 -0 -0 -1 0 1 1 1 1 2 1 1 1 2 2 1 -0 0 0 -0 -0 -0 -1 -1 -1 -1 0 1 1 1 1 1 1 -0 -0 0 1 nan
nan -0 -0 -0 -0 -0 -0 -0 -0 -0 -0 -0 0 1 1 1 0 1 1 1 1 0 -0 -1 -1 -1 -1 -0 -1 -1 0 2 1 1 1 1 0 -0 -0 1 1 1 nan
nan -0 -0 -0 -0 -0 -0 -0 -0 -0 -0 0 0 0 0 0 0 1 1 2 2 1 0 0 -0 0 0 -1 -1 0 1 1 1 0 -0 -0 0 0 0 1 1 1 nan
nan -0 -0 -0 -1 -0 -0 -0 -0 -0 0 0 0 0 0 0 0 1 1 2 2 0 -1 -0 1 1 0 -0 1 1 1 0 0 -0 -0 1 1 0 0 1 1 1 nan
nan -0 -0 -1 -0 -0 -0 -0 -0 -0 -0 0 0 0 0 0 -0 0 1 1 0 -1 -1 0 1 1 0 0 0 0 1 -0 -0 0 1 1 0 0 0 1 1 1 nan
nan -0 -0 -0 -0 -0 -0 -0 -0 -0 -0 -0 -0 -0 0 -0 -0 -0 0 1 -1 -0 1 0 0 -0 -0 -0 -0 -0 -0 -1 0 1 0 0 0 1 1 1 2 1 nan
nan -0 -0 -0 -0 -0 -0 -1 -1 -0 -0 -0 -0 -0 -0 0 0 -1 0 0 1 2 -0 -1 -1 -1 -1 -0 -1 -1 0 0 1 0 0 1 1 1 1 1 1 1 nan
nan -0 -0 -1 -1 -0 -0 -0 -0 -1 -0 -0 -0 -0 -0 0 -0 0 0 1 1 -1 -2 -1 -2 -2 -1 -1 -1 -0 -0 0 1 1 1 1 1 1 1 1 1 1 nan
nan -0 -0 -0 -0 -0 -0 -0 -0 -0 -0 -0 -0 -0 0 -0 0 0 0 1 -0 -2 -1 -1 -1 -0 -0 -1 -1 -0 1 2 2 2 1 1 1 1 1 1 1 1 nan
nan -0 -0 -0 -0 -0 -0 -0 -0 -0 -0 -0 -0 -0 0 0 1 1 1 1 -1 -1 -0 -1 -0 0 -0 -1 -0 1 2 2 1 1 1 1 1 1 1 1 1 0 nan
nan -0 -0 -0 -0 -0 -0 -0 -0 -0 -0 -0 -0 -0 0 1 1 0 0 0 -0 0 1 0 -0 -0 0 0 2 2 1 1 1 1 1 1 1 1 1 1 0 0 nan
nan -0 -0 -0 -0 -0 -0 -0 -0 -0 -0 -0 -0 -0 0 0 1 0 0 0 1 1 1 2 2 2 2 2 2 1 0 0 0 0 1 1 1 1 0 0 0 0 nan
nan -1 -0 -0 -0 -0 -0 -0 -0 -0 -0 -0 -0 -0 0 0 0 0 0 0 0 1 1 1 2 2 2 2 1 1 1 1 1 1 1 1 1 1 0 0 0 1 nan
nan -0 -0 -0 -0 -0 -0 -0 -0 -0 -0 -0 -0 -0 0 0 0 0 0 0 0 0 1 1 1 1 2 2 2 2 2 2 2 2 1 1 1 0 1 1 1 1 nan
nan -0 -0 -0 -0 -0 -0 -0 -0 -0 -0 -0 -0 -0 0 0 0 0 0 0 0 0 0 0 1 1 2 2 2 2 2 2 2 2 1 1 1 1 1 1 1 0 nan
nan nan nan nan nan nan nan nan nan nan nan nan nan nan nan nan nan nan nan nan nan nan nan nan nan nan nan nan nan nan nan nan nan nan nan nan nan nan nan nan nan nan nan
Wind_Speed
7 6 21 26 40 29 58 59 58 56 55 56 57 61 54 56 53 54 51 51 52 53 52 48 44 41 39 37 29 23 21 17 14 21 19 19 18 20 19 18 16 15 15
10 6 8 23 33 36 52 56 55 55 53 56 58 58 54 54 58 56 55 48 50 52 50 50 47 44 44 38 33 28 25 21 17 15 20 18 18 17 17 16 15 15 16
11 8 7 19 31 27 43 50 50 48 53 56 57 56 54 53 56 60 57 52 53 52 50 52 47 44 45 40 37 33 29 25 21 19 18 19 18 18 17 16 15 16 18
14 10 8 13 19 22 41 49 51 50 52 52 55 55 55 54 55 56 57 55 55 54 55 54 49 47 44 41 38 36 33 29 26 24 21 20 20 18 18 17 17 17 19
13 9 7 4 12 18 34 40 53 49 50 50 52 55 56 56 58 58 57 57 57 57 55 52 51 47 43 41 40 40 39 33 30 26 25 23 22 21 19 18 19 19 20
19 17 12 8 9 8 30 40 47 53 51 53 53 54 55 57 56 56 58 53 57 57 55 53 52 47 41 39 39 38 38 37 33 29 27 25 23 20 20 21 22 21 22
19 13 11 10 10 3 19 36 40 50 51 50 49 50 51 54 54 53 54 54 54 52 52 53 52 49 47 41 39 36 35 33 29 24 25 25 22 21 21 23 24 22 23
20 16 13 11 8 3 9 26 38 44 52 52 51 49 48 50 50 47 46 49 51 52 52 53 54 51 48 44 41 38 36 33 30 29 29 25 24 24 23 22 23 23 24
22 19 15 14 10 6 1 12 29 34 48 49 48 50 52 52 51 49 48 48 50 51 51 53 50 47 48 43 40 37 35 33 32 30 28 26 25 24 23 21 22 21 22
22 18 15 13 10 8 4 6 16 33 37 46 48 46 46 48 48 47 48 50 51 51 49 46 44 47 46 41 40 38 36 33 31 30 29 27 25 23 23 20 18 20 20
20 16 14 12 10 8 6 4 13 21 32 39 42 43 43 44 44 43 44 49 51 50 48 46 46 45 49 44 40 37 37 34 33 31 28 25 25 22 18 19 20 20 19
20 19 17 15 12 9 8 6 5 18 24 33 35 37 41 41 39 40 42 44 46 47 47 44 46 46 45 41 41 43 37 33 31 30 29 27 24 19 20 21 20 19 20
23 22 21 18 15 11 8 6 3 9 17 25 32 36 38 38 38 37 39 41 43 43 42 45 47 45 42 41 40 37 34 32 32 31 30 25 21 24 22 21 20 19 18
24 21 19 18 18 11 8 6 4 3 12 23 31 33 35 35 38 38 38 40 48 44 43 46 45 43 42 43 43 36 35 32 30 27 25 25 26 24 21 20 20 18 17
22 20 19 18 17 13 10 8 6 3 7 16 24 29 33 37 42 41 42 45 50 49 46 42 43 43 44 42 41 40 35 33 28 33 29 27 26 23 21 20 19 18 16
22 20 19 19 17 15 14 9 3 5 6 8 16 26 30 31 38 43 42 43 48 48 47 47 48 50 50 49 44 40 39 33 33 33 29 27 24 23 22 21 19 17 15
20 19 19 19 19 17 14 14 12 2 2 5 8 19 26 28 31 38 42 43 45 48 48 46 45 46 51 55 55 50 41 40 36 30 29 28 25 24 23 21 18 16 15
19 18 18 19 19 15 14 15 13 10 6 2 2 10 21 25 25 30 38 43 46 44 43 44 44 44 44 49 50 47 43 37 33 32 30 27 25 24 22 20 18 15 12
19 20 20 16 15 13 12 13 12 9 6 5 1 4 14 21 23 27 40 44 46 44 43 43 45 47 48 48 46 41 38 37 36 33 29 26 24 23 22 19 17 14 10
18 20 18 15 14 12 10 11 12 9 7 4 2 0 7 17 25 30 40 43 43 44 43 44 45 45 45 45 43 42 39 37 35 31 28 26 25 23 22 18 16 12 9
19 22 17 14 12 10 11 13 13 11 7 5 3 1 5 17 25 33 40 40 38 42 46 46 46 48 47 45 42 41 40 37 34 30 28 28 25 24 21 17 15 12 9
21 19 15 14 12 10 11 10 10 9 7 6 5 3 5 12 21 32 35 35 34 36 43 47 48 47 46 44 42 40 38 36 34 31 30 27 25 24 21 18 15 12 9
21 18 15 13 11 11 10 8 8 6 6 5 4 3 6 8 14 22 27 24 24 26 31 38 41 43 42 40 40 38 36 36 32 31 31 29 27 25 21 18 15 12 9
19 15 12 11 11 10 10 9 8 6 5 5 3 1 4 7 10 14 17 20 18 20 24 31 34 37 39 40 38 35 34 33 32 30 27 27 26 24 21 18 15 12 9
15 12 11 11 10 10 9 9 7 6 4 4 3 2 3 6 9 11 14 17 18 18 21 25 28 32 35 35 36 35 33 32 32 31 29 26 24 23 21 17 14 13 11
12 11 10 9 8 8 7 7 5 3 2 2 1 2 4 6 9 12 14 17 19 20 22 23 25 28 30 31 32 33 34 33 33 31 29 27 26 24 21 18 16 13 10
Wind_Direction
325 341 261 244 233 228 214 219 219 213 216 213 213 211 213 219 216 219 219 218 221 221 218 213 211 213 215 218 216 219 214 214 218 207 210 212 209 215 222 230 238 246 255
1 337 285 231 228 230 203 218 218 215 221 217 215 214 215 218 217 217 219 221 219 219 217 213 212 212 215 216 216 215 216 216 218 217 213 213 217 217 221 229 239 248 259
12 334 282 238 221 217 210 218 216 220 219 217 217 215 216 218 219 218 219 218 218 223 220 216 218 216 215 215 213 212 214 215 218 219 218 218 222 223 229 236 246 256 265
10 338 313 241 217 209 208 215 219 217 218 218 217 217 217 219 219 222 223 223 221 222 223 225 222 219 219 216 216 216 219 219 220 221 224 228 231 235 241 246 254 264 269
357 332 348 281 235 222 198 202 218 217 220 221 220 220 220 221 222 223 223 228 225 225 225 226 224 222 222 222 219 218 221 224 222 224 230 233 239 244 255 261 266 268 273
351 358 342 317 291 225 205 201 213 218 219 219 219 219 220 221 223 226 226 229 229 229 229 225 222 221 218 222 222 223 227 226 226 231 237 240 246 252 260 266 270 270 274
3 351 338 322 302 207 204 203 203 218 217 215 218 219 221 222 223 226 229 230 231 230 228 227 222 218 217 215 222 223 225 230 235 240 244 247 253 262 261 266 268 273 277
4 352 336 334 320 340 209 201 208 216 219 218 217 219 221 224 222 225 227 229 230 229 228 229 225 221 214 209 217 219 220 222 225 231 236 245 250 253 260 266 268 276 279
356 356 344 337 335 337 217 205 203 207 217 213 217 218 222 223 224 226 225 225 224 226 228 229 223 215 211 207 216 217 220 222 227 232 237 240 247 252 260 263 268 271 280
357 351 347 342 344 332 333 213 202 204 208 216 213 216 220 223 223 222 222 221 220 222 225 226 220 211 199 202 208 215 217 221 226 230 235 239 245 251 253 260 265 272 274
351 355 354 352 348 338 324 279 228 204 212 215 218 218 220 221 221 220 221 221 221 222 223 217 210 206 198 203 209 218 222 228 233 231 233 237 239 240 250 261 266 270 272
351 359 359 1 358 355 337 301 242 220 214 208 215 220 220 219 221 221 219 220 221 220 218 212 204 204 196 200 207 212 220 219 223 227 231 230 231 240 247 254 260 265 268
0 1 1 4 4 353 343 326 281 223 226 212 215 219 218 218 221 221 220 221 221 218 215 206 199 194 200 204 209 214 214 216 221 227 225 225 232 234 238 246 255 261 266
358 1 1 4 3 356 344 346 327 221 211 215 211 215 221 219 222 218 215 216 217 218 217 208 202 199 203 208 214 215 216 219 223 224 224 219 222 228 235 245 251 256 262
355 359 1 4 359 359 355 346 336 268 228 210 214 214 219 223 224 220 209 207 209 211 211 210 205 202 202 204 208 215 217 215 224 217 213 216 222 227 234 241 246 250 252
351 352 358 356 355 3 354 342 291 294 248 225 216 219 223 223 228 227 217 208 205 210 209 206 202 200 205 210 212 213 211 217 218 211 208 215 218 223 227 230 233 237 243
345 347 350 348 352 353 356 351 341 234 231 230 219 218 225 223 224 223 218 210 208 209 208 207 208 207 211 213 213 212 217 212 207 205 209 211 213 216 218 218 225 233 237
343 347 350 347 341 344 349 341 339 338 341 282 211 211 221 223 212 215 209 206 202 207 203 202 200 199 202 203 203 201 200 200 200 203 205 206 209 215 214 214 219 224 231
340 344 344 336 335 342 343 341 335 329 341 345 295 220 211 217 207 207 207 205 201 199 200 197 193 193 194 193 194 196 196 200 200 199 199 202 205 208 207 207 208 213 224
333 340 338 332 332 342 346 339 338 342 334 340 3 307 192 199 192 201 205 205 206 201 198 198 196 195 195 197 195 196 196 197 196 195 198 200 201 204 203 201 201 208 214
333 334 336 328 329 345 339 338 336 339 333 323 311 203 186 187 191 198 202 206 206 204 198 197 199 199 199 197 197 196 195 193 194 194 195 196 197 193 188 191 197 201 213
328 331 328 328 332 335 336 333 335 339 340 323 289 221 195 187 190 201 204 206 206 207 206 202 201 202 200 200 196 193 191 193 193 194 193 192 189 188 189 191 194 199 208
333 332 333 328 322 322 327 329 327 338 3 353 299 230 175 185 190 204 208 209 208 209 210 209 207 202 200 197 192 191 194 195 196 197 193 187 185 184 186 190 190 193 200
329 329 326 319 320 326 327 328 324 322 314 302 307 268 182 171 185 197 198 201 202 205 206 206 205 202 195 189 189 189 191 192 192 189 188 184 180 180 182 184 185 183 190
324 325 325 324 325 331 328 325 322 319 309 301 286 242 194 173 178 181 188 187 185 188 190 193 193 194 191 188 185 183 182 184 183 178 176 179 180 179 178 177 178 178 191
324 326 330 322 322 323 313 305 310 316 319 314 265 224 192 178 178 174 177 179 174 173 177 178 180 182 180 178 177 176 175 174 174 173 172 172 173 172 171 173 175 180 182
Height
1381 1368 1371 1377 1381 1384 1389 1396 1404 1412 1416 1424 1434 1440 1447 1452 1459 1466 1473 1478 1482 1489 1500 1506 1511 1519 1523 1529 1530 1536 1540 1543 1546 1550 1554 1557 1558 1560 1561 1565 1566 1568 1570
1363 1367 1371 1374 1374 1373 1379 1387 1396 1403 1408 1416 1426 1433 1439 1445 1452 1458 1465 1470 1477 1485 1492 1499 1505 1513 1519 1521 1523 1531 1536 1541 1545 1549 1552 1554 1556 1558 1559 1562 1563 1564 1566
1358 1363 1364 1364 1357 1370 1375 1381 1388 1396 1402 1410 1419 1425 1431 1437 1445 1452 1458 1465 1472 1478 1484 1493 1499 1506 1511 1514 1518 1525 1532 1537 1541 1546 1549 1552 1553 1554 1556 1558 1559 1560 1561
1350 1356 1359 1355 1360 1366 1372 1375 1380 1387 1396 1403 1410 1417 1425 1432 1438 1446 1452 1459 1464 1471 1478 1485 1491 1498 1505 1509 1514 1521 1528 1531 1536 1542 1544 1548 1550 1551 1553 1554 1554 1555 1556
1366 1368 1358 1357 1361 1360 1360 1366 1373 1381 1389 1396 1403 1410 1416 1423 1429 1436 1443 1451 1456 1462 1469 1477 1485 1493 1500 1508 1511 1516 1523 1528 1532 1535 1540 1542 1544 1546 1549 1551 1551 1550 1550
1355 1338 1347 1355 1357 1354 1355 1361 1368 1373 1379 1387 1393 1399 1406 1413 1421 1428 1436 1443 1448 1454 1459 1469 1477 1487 1495 1503 1508 1512 1519 1523 1528 1531 1535 1537 1539 1542 1545 1547 1545 1546 1545
1354 1359 1359 1356 1356 1349 1351 1357 1360 1365 1371 1376 1384 1391 1397 1405 1412 1421 1428 1435 1441 1445 1452 1459 1467 1477 1486 1495 1503 1508 1514 1519 1524 1527 1531 1534 1536 1538 1540 1539 1542 1541 1540
1362 1360 1356 1356 1351 1345 1346 1348 1355 1361 1363 1369 1376 1383 1390 1397 1405 1413 1420 1428 1432 1437 1443 1449 1457 1468 1476 1487 1494 1501 1507 1511 1517 1521 1525 1529 1530 1532 1533 1534 1536 1535 1534
1363 1356 1355 1355 1345 1345 1342 1344 1349 1354 1358 1360 1368 1376 1382 1390 1397 1405 1413 1418 1423 1428 1434 1441 1449 1459 1469 1479 1487 1495 1501 1505 1511 1516 1519 1521 1523 1526 1527 1529 1530 1530 1529
1369 1367 1361 1355 1347 1343 1341 1342 1346 1349 1350 1355 1361 1368 1376 1383 1389 1397 1403 1408 1413 1419 1426 1434 1442 1452 1462 1472 1480 1487 1493 1499 1504 1508 1510 1514 1518 1520 1523 1524 1523 1523 1524
1373 1366 1359 1352 1346 1341 1340 1340 1343 1338 1346 1350 1355 1360 1368 1375 1382 1387 1393 1398 1405 1411 1417 1424 1434 1445 1455 1464 1472 1479 1487 1495 1499 1502 1506 1509 1513 1514 1515 1516 1517 1518 1518
1367 1355 1349 1344 1341 1337 1337 1337 1337 1341 1345 1346 1348 1355 1361 1368 1374 1380 1385 1391 1399 1403 1408 1418 1428 1438 1450 1458 1468 1476 1482 1487 1491 1495 1499 1503 1505 1507 1509 1510 1512 1512 1513
1355 1346 1340 1335 1336 1340 1338 1337 1334 1334 1335 1339 1345 1350 1356 1360 1366 1373 1378 1386 1393 1400 1406 1414 1422 1434 1445 1454 1462 1469 1473 1479 1484 1487 1492 1495 1499 1502 1503 1504 1506 1508 1508
1352 1350 1348 1343 1340 1338 1338 1336 1334 1332 1336 1340 1342 1345 1348 1351 1357 1364 1372 1381 1389 1395 1403 1410 1420 1431 1441 1448 1453 1460 1466 1471 1477 1480 1486 1489 1493 1495 1497 1500 1502 1504 1505
1356 1352 1349 1346 1345 1340 1337 1335 1332 1333 1333 1332 1335 1338 1342 1345 1350 1357 1364 1371 1379 1387 1396 1405 1413 1421 1430 1438 1444 1451 1458 1463 1468 1473 1479 1483 1487 1491 1494 1496 1499 1500 1501
1354 1354 1352 1350 1345 1339 1336 1332 1332 1332 1330 1329 1330 1332 1336 1341 1348 1354 1360 1365 1372 1379 1389 1395 1403 1411 1420 1428 1435 1443 1450 1456 1462 1467 1472 1477 1482 1486 1489 1492 1494 1495 1495
1359 1354 1349 1344 1340 1339 1337 1336 1332 1330 1327 1328 1325 1325 1331 1335 1341 1348 1355 1360 1365 1373 1379 1385 1392 1400 1408 1417 1426 1435 1442 1449 1456 1461 1467 1472 1476 1482 1484 1487 1489 1491 1492
1357 1353 1347 1343 1343 1339 1335 1335 1332 1329 1325 1324 1322 1323 1324 1332 1337 1343 1348 1355 1362 1368 1372 1377 1383 1391 1401 1409 1418 1426 1435 1442 1449 1456 1462 1467 1472 1476 1479 1482 1485 1488 1489
1355 1351 1349 1347 1346 1339 1335 1334 1333 1330 1324 1322 1322 1321 1322 1326 1331 1338 1344 1348 1353 1360 1366 1373 1378 1386 1394 1404 1413 1421 1429 1437 1444 1450 1457 1461 1466 1472 1475 1479 1482 1485 1486
1356 1352 1347 1344 1343 1337 1335 1335 1333 1327 1324 1322 1320 1320 1320 1323 1329 1333 1339 1343 1349 1355 1362 1368 1376 1384 1391 1400 1408 1417 1425 1432 1438 1445 1451 1457 1461 1467 1472 1475 1479 1482 1483
1355 1350 1344 1343 1340 1335 1333 1331 1329 1326 1323 1322 1321 1321 1322 1323 1325 1332 1335 1339 1344 1351 1357 1364 1372 1380 1388 1396 1404 1412 1420 1427 1434 1440 1447 1452 1457 1463 1469 1474 1477 1479 1481
1353 1348 1345 1340 1335 1333 1333 1331 1330 1328 1325 1323 1324 1324 1324 1324 1324 1330 1333 1338 1342 1347 1354 1360 1368 1376 1383 1390 1398 1406 1414 1421 1428 1436 1442 1447 1453 1461 1466 1471 1473 1476 1478
1345 1339 1335 1335 1336 1335 1331 1329 1329 1327 1323 1325 1327 1326 1324 1324 1325 1332 1334 1337 1340 1345 1350 1358 1364 1370 1378 1386 1395 1402 1408 1416 1424 1432 1438 1443 1450 1458 1463 1467 1470 1472 1476
1341 1340 1340 1339 1336 1330 1329 1327 1327 1326 1326 1328 1327 1324 1324 1324 1328 1331 1333 1335 1339 1343 1348 1355 1362 1369 1377 1384 1391 1399 1408 1415 1422 1429 1436 1442 1448 1454 1460 1464 1468 1471 1476
1341 1339 1336 1333 1331 1327 1327 1327 1326 1326 1327 1327 1326 1325 1325 1325 1328 1330 1333 1335 1338 1342 1348 1354 1361 1368 1375 1382 1390 1398 1405 1412 1419 1425 1432 1440 1446 1452 1457 1462 1467 1470 1474
1340 1337 1334 1334 1331 1330 1332 1333 1329 1326 1325 1325 1325 1326 1326 1325 1329 1330 1333 1336 1337 1341 1347 1353 1360 1368 1375 1382 1390 1398 1405 1411 1418 1425 1431 1437 1444 1449 1456 1461 1465 1468 1472